| time (UTC) | temp C | wind direction | speed KPH | gust KPH | rain 1hr cm | rain 24hr cm | rain mn cm | humidity % | barometer mb |
| 20260504110116 | 11 | 349 | 1.6 | 6.4 | 0.00 | 0.00 | 0.00 | 84 | 1017.3 |
| 20260504090117 | 12 | 354 | 1.6 | 4.8 | 0.00 | 0.00 | 0.00 | 83 | 1017.2 |
| 20260504081603 | 12 | 351 | 1.6 | 4.8 | 0.00 | 0.00 | 0.00 | 83 | 1017.4 |
| 20260504044625 | 15 | 333 | 0.0 | 3.2 | 0.00 | 0.00 | 0.00 | 81 | 1018.2 |
| 20260504043047 | 15 | 333 | 3.2 | 6.4 | 0.00 | 0.00 | 0.00 | 81 | 1018.1 |
| 20260504041554 | 15 | 331 | 4.8 | 8.0 | 0.00 | 0.00 | 0.00 | 79 | 1018.1 |
| 20260504040053 | 16 | 306 | 0.0 | 3.2 | 0.00 | 0.00 | 0.00 | 81 | 1018.1 |
| 20260504034554 | 16 | 305 | 1.6 | 4.8 | 0.00 | 0.00 | 0.00 | 79 | 1018.2 |
| 20260504033054 | 16 | 0 | 0.0 | 3.2 | 0.00 | 0.00 | 0.00 | 79 | 1018.3 |
| 20260504031550 | 16 | 0 | 0.0 | 3.2 | 0.00 | 0.00 | 0.00 | 77 | 1018.3 |
| 20260504030052 | 17 | 0 | 0.0 | 3.2 | 0.00 | 0.00 | 0.00 | 75 | 1018.2 |
| 20260504024552 | 17 | 303 | 0.0 | 3.2 | 0.00 | 0.00 | 0.00 | 73 | 1018.1 |
| 20260504023049 | 18 | 0 | 0.0 | 0.0 | 0.00 | 0.00 | 0.00 | 69 | 1017.9 |
| 20260504021552 | 18 | 0 | 0.0 | 0.0 | 0.00 | 0.00 | 0.00 | 66 | 1017.8 |
| 20260504020046 | 19 | 0 | 0.0 | 0.0 | 0.00 | 0.00 | 0.00 | 66 | 1017.7 |
| 20260504014548 | 20 | 0 | 0.0 | 0.0 | 0.00 | 0.00 | 0.00 | 63 | 1017.5 |
| 20260504013054 | 20 | 0 | 0.0 | 4.8 | 0.00 | 0.00 | 0.00 | 60 | 1017.3 |
| 20260504011551 | 20 | 0 | 0.0 | 1.6 | 0.00 | 0.00 | 0.00 | 60 | 1017.1 |
| 20260504010057 | 21 | 0 | 0.0 | 6.4 | 0.00 | 0.00 | 0.00 | 57 | 1017.0 |
| 20260504004552 | 21 | 0 | 0.0 | 6.4 | 0.00 | 0.00 | 0.00 | 56 | 1016.9 |
| 20260504003051 | 21 | 222 | 0.0 | 8.0 | 0.00 | 0.00 | 0.00 | 54 | 1016.8 |
| 20260504001611 | 21 | 225 | 0.0 | 6.4 | 0.00 | 0.00 | 0.00 | 52 | 1016.8 |
| 20260504000056 | 21 | 188 | 4.8 | 12.9 | 0.00 | 0.00 | 0.00 | 54 | 1016.7 |
| 20260503234550 | 22 | 191 | 4.8 | 14.5 | 0.00 | 0.00 | 0.00 | 50 | 1016.6 |
| 20260503233053 | 22 | 198 | 3.2 | 8.0 | 0.00 | 0.00 | 0.00 | 49 | 1016.5 |
| 20260503231548 | 22 | 217 | 9.7 | 17.7 | 0.00 | 0.00 | 0.00 | 48 | 1016.5 |
| 20260503230053 | 22 | 221 | 9.7 | 20.9 | 0.00 | 0.00 | 0.00 | 49 | 1016.5 |
| 20260503224550 | 22 | 177 | 14.5 | 22.5 | 0.00 | 0.00 | 0.00 | 49 | 1016.4 |
| 20260503223051 | 22 | 208 | 9.7 | 19.3 | 0.00 | 0.00 | 0.00 | 47 | 1016.4 |
| 20260503221551 | 23 | 0 | 3.2 | 16.1 | 0.00 | 0.00 | 0.00 | 45 | 1016.4 |
| 20260503220106 | 23 | 132 | 3.2 | 12.9 | 0.00 | 0.00 | 0.00 | 44 | 1016.6 |
| 20260503214548 | 23 | 190 | 0.0 | 14.5 | 0.00 | 0.00 | 0.00 | 44 | 1016.7 |
| 20260503213049 | 24 | 331 | 11.3 | 19.3 | 0.00 | 0.00 | 0.00 | 36 | 1016.8 |
| 20260503211605 | 24 | 41 | 3.2 | 16.1 | 0.00 | 0.00 | 0.00 | 32 | 1016.9 |
| 20260503210056 | 23 | 0 | 8.0 | 20.9 | 0.00 | 0.00 | 0.00 | 32 | 1017.1 |
| 20260503204555 | 23 | 26 | 16.1 | 27.4 | 0.00 | 0.00 | 0.00 | 33 | 1017.4 |
| 20260503203050 | 23 | 29 | 8.0 | 24.1 | 0.00 | 0.00 | 0.00 | 32 | 1017.5 |
| 20260503201549 | 24 | 15 | 1.6 | 29.0 | 0.00 | 0.00 | 0.00 | 34 | 1017.7 |
| 20260503200047 | 23 | 301 | 9.7 | 25.7 | 0.00 | 0.00 | 0.00 | 33 | 1018.0 |
| 20260503194549 | 23 | 359 | 6.4 | 16.1 | 0.00 | 0.00 | 0.00 | 35 | 1018.1 |
| 20260503193053 | 23 | 319 | 22.5 | 30.6 | 0.00 | 0.00 | 0.00 | 33 | 1018.5 |
| 20260503191550 | 23 | 330 | 6.4 | 20.9 | 0.00 | 0.00 | 0.00 | 35 | 1018.8 |
| 20260503190048 | 23 | 46 | 11.3 | 19.3 | 0.00 | 0.00 | 0.00 | 37 | 1019.1 |
| 20260503184549 | 23 | 330 | 8.0 | 22.5 | 0.00 | 0.00 | 0.00 | 37 | 1019.3 |
| 20260503183048 | 22 | 344 | 17.7 | 32.2 | 0.00 | 0.00 | 0.00 | 38 | 1019.4 |
| 20260503181617 | 22 | 353 | 9.7 | 17.7 | 0.00 | 0.00 | 0.00 | 37 | 1019.4 |
| 20260503180051 | 22 | 54 | 1.6 | 22.5 | 0.00 | 0.00 | 0.00 | 36 | 1019.4 |
| 20260503174555 | 22 | 19 | 16.1 | 24.1 | 0.00 | 0.00 | 0.00 | 37 | 1019.7 |
| 20260503173057 | 22 | 38 | 12.9 | 24.1 | 0.00 | 0.00 | 0.00 | 36 | 1019.9 |
| 20260503171550 | 22 | 50 | 14.5 | 27.4 | 0.00 | 0.00 | 0.00 | 37 | 1020.0 |